Caldwell, NJ

4:30 AM EDT on September 20, 2019 (GMT -0400)
Essex County

Weather History for KCDW - August, 2019

Change the Weather History Date:

Monday, August 26, 2019

  Actual Average Record
Temperature  
Mean Temperature 67 °F -  
Max Temperature 75 °F 82 °F 95 °F (1980)
Min Temperature 59 °F 58 °F 46 °F (1987)
Cooling Degree Days 2    
Growing Degree Days 17 (Base 50)    
Moisture  
Dew Point 54 °F    
Average Humidity 66    
Maximum Humidity 87    
Minimum Humidity 41    
Precipitation  
Precipitation 0.00 in - - ()
Sea Level Pressure  
Sea Level Pressure 30.22 in    
Wind  
Wind Speed 5 mph ()    
Max Wind Speed 12 mph    
Max Gust Speed 18 mph    
Visibility 10.0 miles    
Events      
Averages and records for this station are not official NWS values.
T = Trace of Precipitation, MM = Missing Value Source: Averaged Metar Reports

Daily Weather History Graph

Daily Weather History Graph

Search for Another Location

Airport or City:

Astronomy

Aug. 26, 2019 Rise Set
Actual Time 6:17 AM EDT 7:39 PM EDT
Civil Twilight 5:49 AM EDT 8:07 PM EDT
Nautical Twilight 5:14 AM EDT 8:42 PM EDT
Astronomical Twilight 4:38 AM EDT 9:18 PM EDT
Moon 1:39 AM EDT (8/26) 5:01 PM EDT (8/26)
Length of Visible Light 14h 18m
Length of Day
13h 21m
Waning Crescent, 19% of the Moon is Illuminated
Aug 26
Waning Crescent
Aug 30
New
Sep 5
First Quarter
Sep 14
Full
Sep 21
Last Quarter

Hourly Weather History & Observations

Time (EDT) Temp. Dew Point Humidity Pressure Visibility Wind Dir Wind Speed Gust Speed Precip Events Conditions
12:53 AM 64.9 °F 55.9 °F 73% 30.26 in 10.0 mi East 8.1 mph - N/A   Clear
1:53 AM 63.0 °F 55.0 °F 75% 30.25 in 10.0 mi NE 4.6 mph - N/A   Clear
2:53 AM 61.0 °F 53.1 °F 75% 30.24 in 10.0 mi Variable 4.6 mph - N/A   Clear
3:53 AM 59.0 °F 55.0 °F 87% 30.24 in 10.0 mi Calm Calm - N/A   Mostly Cloudy
4:53 AM 60.1 °F 53.1 °F 78% 30.25 in 10.0 mi NNE 3.5 mph - N/A   Overcast
5:53 AM 59.0 °F 52.0 °F 78% 30.26 in 10.0 mi Variable 3.5 mph - N/A   Overcast
6:53 AM 61.0 °F 52.0 °F 72% 30.27 in 10.0 mi Variable 4.6 mph - N/A   Overcast
7:53 AM 61.0 °F 52.0 °F 72% 30.27 in 10.0 mi NE 5.8 mph - N/A   Overcast
8:37 AM 63.0 °F 53.1 °F 70% 30.25 in 10.0 mi ENE 8.1 mph - N/A   Scattered Clouds
8:53 AM 63.0 °F 53.1 °F 70% 30.26 in 10.0 mi East 11.5 mph - N/A   Clear
9:53 AM 66.0 °F 53.1 °F 63% 30.25 in 10.0 mi NE 10.4 mph - N/A   Partly Cloudy
10:53 AM 68.0 °F 54.0 °F 61% 30.26 in 10.0 mi East 11.5 mph - N/A   Clear
11:53 AM 69.1 °F 54.0 °F 58% 30.25 in 10.0 mi East 9.2 mph - N/A   Scattered Clouds
12:53 PM 73.0 °F 55.0 °F 53% 30.24 in 10.0 mi East 8.1 mph - N/A   Scattered Clouds
1:53 PM 75.0 °F 53.1 °F 46% 30.22 in 10.0 mi ENE 5.8 mph - N/A   Scattered Clouds
2:53 PM 75.0 °F 53.1 °F 46% 30.20 in 10.0 mi East 9.2 mph - N/A   Clear
3:53 PM 75.0 °F 50.0 °F 41% 30.19 in 10.0 mi East 10.4 mph 18.4 mph N/A   Clear
4:53 PM 73.9 °F 48.9 °F 41% 30.17 in 10.0 mi ESE 8.1 mph - N/A   Clear
5:53 PM 73.9 °F 51.1 °F 45% 30.17 in 10.0 mi East 9.2 mph - N/A   Clear
6:53 PM 72.0 °F 55.9 °F 57% 30.16 in 10.0 mi SE 5.8 mph - N/A   Clear
7:53 PM 70.0 °F 57.0 °F 63% 30.16 in 10.0 mi SE 4.6 mph - N/A   Clear
8:53 PM 68.0 °F 57.9 °F 70% 30.18 in 10.0 mi Calm Calm - N/A   Clear
9:53 PM 64.9 °F 59.0 °F 81% 30.18 in 10.0 mi Calm Calm - N/A   Clear
10:53 PM 63.0 °F 59.0 °F 87% 30.18 in 10.0 mi Calm Calm - N/A   Clear
11:53 PM 62.1 °F 57.9 °F 86% 30.18 in 10.0 mi Calm Calm - N/A   Clear